Regional Weather Roundup
Issued by NWS

Home | Current Version | Previous Version | Graphics & Text | Print | Product List | Glossary On
Versions: 1 2 3 4 5 6 7 8 9 10 11 12 13 14 15 16 17 18 19 20 21 22 23 24 25 26 27 28 29 30 31 32 33 34 35 36 37 38 39 40 41 42 43 44 45 46 47 48 49 50
000
ASUS43 KIND 231559
RWRIN

WEATHER ROUNDUP FOR INDIANA
NATIONAL WEATHER SERVICE INDIANAPOLIS IN
1100 AM EST THU NOV 23 2017

NOTE: "FAIR" INDICATES FEW OR NO CLOUDS BELOW 12,000 FEET WITH NO
SIGNIFICANT WEATHER AND/OR OBSTRUCTIONS TO VISIBILITY.

* - STATION DOES NOT REPORT WEATHER SUCH AS PRECIPITATION OR FOG.

+ - STATION NOT QUALITY CONTROLLED BY THE NATIONAL WEATHER SERVICE.
    USE DATA WITH CAUTION...ESPECIALLY DEWPOINT AND RELATIVE
    HUMIDITY OBSERVATIONS.

INZ001>003-010>013-019-020-231700-
NORTHWEST INDIANA

CITY           SKY/WX    TMP DP  RH WIND       PRES   REMARKS
GARY /AIRPORT/ MOSUNNY   39  21  48 SW5G17    30.04F WCI  36
KNOX *+        CLOUDY    34  23  64 SW12      30.06F WCI  25
LA PORTE +     CLOUDY    35  24  63 SW12      30.05S WCI  27
MICHIGAN CITY+ CLOUDY    36  23  60 S9        30.05S WCI  29
MONTICELLO +   CLOUDY    35  23  60 SW9       30.08F WCI  28
RENSSELAER +   SUNNY     37  19  48 S14       30.07F WCI  29

$$

LMZ046-743>745-231700-
SOUTHERN LAKE MICHIGAN

STATION/POSITION TIME  TEMP    WIND        PRES    WAVE
                       AIR SEA DIR/SP/G            HT
                 (UTC) (F)     (DEG/KT/KT) (MB)    (FT)
BURNS HARBOR     1540   36     190/ 13/ 15 1017.6F
MICHIGAN CITY    1530   35     180/ 10/ 12   N/A

$$

INZ004-005-014>016-021>024-231700-
NORTH CENTRAL INDIANA

CITY           SKY/WX    TMP DP  RH WIND       PRES   REMARKS
GOSHEN         CLOUDY    33  22  63 S13       30.06F WCI  24
PERU/GRISSOM   CLOUDY    35  26  68 SW8       30.08F WCI  29
SOUTH BEND     CLOUDY    34  23  64 SW10      30.06F WCI  26
WARSAW +       CLOUDY    32  23  69 SW6       30.08S WCI  26

$$

INZ006>009-017-018-025>027-231700-
NORTHEAST INDIANA

CITY           SKY/WX    TMP DP  RH WIND       PRES   REMARKS
AUBURN +       CLOUDY    34  27  75 S7        30.09S WCI  28
FORT WAYNE     CLOUDY    35  27  72 SW10      30.10F WCI  27
KENDALLVILLE + CLOUDY    32  25  76 SW12      30.07F WCI  23

$$

INZ028-029-035-036-043>045-051>053-231700-
WEST CENTRAL INDIANA

CITY           SKY/WX    TMP DP  RH WIND       PRES   REMARKS
CRAWFORDSVL +  CLOUDY    32  24  70 SW10      30.11R WCI  24
GREENCASTLE +  CLOUDY    34  23  64 CALM      30.11S
LAFAYETTE      CLOUDY    36  24  62 S10       30.10S WCI  28
TERRE HAUTE    CLOUDY    37  24  59 SW10      30.12F WCI  30

$$

INZ030>032-037>040-046>048-054>057-064-065-231700-
CENTRAL INDIANA

CITY           SKY/WX    TMP DP  RH WIND       PRES   REMARKS
COLUMBUS       SUNNY     36  25  64 CALM      30.14S
FRANKFORT +    CLOUDY    37  27  67 SW8       30.11S WCI  31
GREENWOOD *+   CLOUDY    40  28  62 SW6       30.12S WCI  36
INDIANAPOLIS   CLOUDY    37  25  61 SW8       30.11F WCI  31
-EAGLE CREEK   CLOUDY    36  24  62 S5        30.10F WCI  32
KOKOMO +       CLOUDY    35  25  66 S9        30.10S WCI  28
SHELBYVILLE    CLOUDY    38  26  62 S8        30.11F WCI  32

$$

INZ033-034-041-042-049-050-058-059-231700-
EAST CENTRAL INDIANA

CITY           SKY/WX    TMP DP  RH WIND       PRES   REMARKS
MUNCIE         CLOUDY    37  25  61 SW9       30.10S WCI  30
RICHMOND +     CLOUDY    32  28  86 S8        30.11F WCI  25

$$

INZ060-061-067>069-081>083-085>088-231700-
SOUTHWEST INDIANA

CITY           SKY/WX    TMP DP  RH WIND       PRES   REMARKS
EVANSVILLE     SUNNY     39  26  59 SW8       30.16F WCI  33
HUNTINGBURG +  PTSUNNY   39  28  64 S9        30.15F WCI  33

$$

INZ062-063-066-070>080-084-089>092-231700-
SOUTH CENTRAL AND SOUTHEAST INDIANA

CITY           SKY/WX    TMP DP  RH WIND       PRES   REMARKS
BLOOMINGTON    CLOUDY    37  24  59 S8        30.11F WCI  31
MADISON *+     CLOUDY    37  28  70 SE6       30.15F WCI  33
SEYMOUR +      CLOUDY    39  28  65 S7        30.14F WCI  34

$$





USA.gov is the U.S. government's official web portal to all federal, state and local government web resources and services.